Home   Weather   Unalaska   Past weeks
Flag for USA

Past Weather in Unalaska, Alaska, USA — Yesterday and Last 2 Weeks

Now
52 °F

Partly sunny.


Feels Like: 52 °F
Forecast: 51 / 47 °F
Wind: 3 mph from North

Location: Dutch Harbor

Current Time: Sep 19, 2019 at 10:06:06 pm

Latest Report: Sep 19, 2019 at 8:56 pm


Visibility: 10 mi

Pressure: 29.59 "Hg

Humidity: 86%

Dew Point: 48 °F

Location of UnalaskaLocation

Past Weather in Unalaska — Graph

°F

Unalaska Temperature Yesterday

Maximum temperature yesterday: 54 °F (at 3:15 am)
Minimum temperature yesterday: 51 °F (at 9:56 am)
Average temperature yesterday: 52 °F

High & Low Weather Summary for the Past Weeks

 TemperatureHumidityPressure
High64 °F (Sep 16, 10:56 pm)100% (Sep 5, 11:37 pm)30.11 "Hg (Sep 5, 11:37 pm)
Low44 °F (Sep 10, 5:56 am)53% (Sep 7, 1:56 pm)29.17 "Hg (Sep 11, 5:14 pm)
Average54 °F79%29.71 "Hg
* Reported Sep 4 8:56 pm — Sep 19 8:56 pm, Unalaska. Weather by CustomWeather, © 2019

Note: Actual official high and low records may vary slightly from our data, if they occured in-between our weather recording intervals... More about our weather records

Advertising

Unalaska Weather History for the Previous 24 Hours

Scroll right to see more
 ConditionsComfort  
Time TempWeatherWind HumidityBarometerVisibility
8:56 pm
Thu, Sep 19
52 °FPartly sunny.3 mph86%29.59 "Hg10 mi
7:56 pm52 °FBroken clouds.No wind86%29.57 "Hg10 mi
6:56 pm53 °FPartly sunny.No wind83%29.56 "Hg10 mi
5:56 pm54 °FMostly cloudy.5 mph80%29.55 "Hg10 mi
4:56 pm54 °FMostly cloudy.3 mph80%29.54 "Hg10 mi
3:56 pm54 °FMostly cloudy.6 mph80%29.54 "Hg10 mi
2:56 pm52 °FMostly cloudy.6 mph86%29.55 "Hg10 mi
1:56 pm52 °FMostly cloudy.No wind86%29.55 "Hg10 mi
12:56 pm52 °FCloudy.6 mph86%29.56 "Hg10 mi
11:56 am50 °FCloudy.No wind86%29.56 "Hg8 mi
10:56 am49 °FMostly cloudy.No wind90%29.56 "Hg10 mi
9:56 am48 °FOvercast.No wind93%29.57 "Hg10 mi
8:56 am48 °FMore clouds than sun.No wind93%29.57 "Hg10 mi
7:56 am48 °FFog.No wind93%29.59 "Hg6 mi
6:56 am48 °FFog.No wind93%29.60 "Hg6 mi
5:56 am49 °FLight rain. Overcast.3 mph90%29.62 "Hg10 mi
5:15 am48 °FLight rain. Mostly cloudy.3 mph94%29.63 "Hg10 mi
4:56 am49 °FMostly cloudy.No wind90%29.64 "Hg10 mi
3:56 am50 °FOvercast.5 mph86%29.66 "Hg10 mi
2:56 am50 °FMostly cloudy.5 mph83%29.68 "Hg10 mi
1:56 am50 °FPartly cloudy.3 mph83%29.70 "Hg10 mi
12:56 am50 °FPartly cloudy.No wind80%29.71 "Hg10 mi
11:56 pm
Wed, Sep 18
51 °FPartly cloudy.5 mph74%29.73 "Hg10 mi
10:56 pm51 °FMostly cloudy.6 mph74%29.74 "Hg10 mi
Weather by CustomWeather, © 2019

See weather overview